Regional Weather Roundup
Issued by NWS

Home | Current Version | Previous Version | Text Only | Print | Product List | Glossary Off
Versions: 1 2 3 4 5 6 7 8 9 10 11 12 13 14 15 16 17 18 19 20 21 22 23 24 25 26 27 28 29 30 31 32 33 34 35 36 37 38 39 40 41 42 43 44 45 46 47 48 49 50

000
ASUS43 KLMK 281210
RWRKY
KENTUCKY REGIONAL WEATHER ROUNDUP
NATIONAL WEATHER SERVICE LOUISVILLE KY
700 AM EST TUE FEB 28 2017

NOTE "FAIR" INDICATES FEW OR NO CLOUDS BELOW 12,000 FEET
WITH NO SIGNIFICANT WEATHER AND/OR OBSTRUCTIONS TO VISIBILITY.

KYZ001>023-026-027-061>063-070>075-281300-
WESTERN AND SOUTH CENTRAL KENTUCKY

CITY           SKY/WX    TMP DP  RH WIND       PRES   REMARKS
PADUCAH        LGT RAIN  59  56  89 S12G17    29.96F
HENDERSON      CLOUDY    54  48  82 S9        29.99S
OWENSBORO      TSTM      52  50  93 S9        30.01  FOG
HOPKINSVILLE   CLOUDY    60  56  88 S10G23    30.02F
BOWLING GREEN  CLOUDY    56  51  84 S13       30.07F
GLASGOW        CLOUDY    52  47  84 S9        30.09F
$$

KYZ024-025-028>034-038-045-046-053-281300-
NORTH CENTRAL KENTUCKY

CITY           SKY/WX    TMP DP  RH WIND       PRES   REMARKS
LOUISVILLE/SDF CLOUDY    51  47  86 SE6       30.06S
LOUISVILLE/LOU CLOUDY    51  47  86 SE3       30.07R
FORT KNOX      CLOUDY    52  46  82 S9        30.02
$$

KYZ035>037-039>044-047>052-055>060-089>105-281300-
NORTHEAST KENTUCKY

CITY           SKY/WX    TMP DP  RH WIND       PRES   REMARKS
LEXINGTON      TSTM      51  47  86 CALM      30.13R FOG
COVINGTON      LGT RAIN  46  45  96 S8        30.09F
FRANKFORT      RAIN      49  45  86 SE7       30.08S
$$

KYZ054-064>069-076>088-106>120-281300-
SOUTHEAST KENTUCKY

CITY           SKY/WX    TMP DP  RH WIND       PRES   REMARKS
JACKSON        CLOUDY    49  40  71 CALM      30.16S
LONDON         CLOUDY    43  39  86 CALM      30.14F
SOMERSET       CLOUDY    50  46  87 S7        30.13F
MIDDLESBORO    CLOUDY    42  37  84 E3        30.22R
MONTICELLO     MOSUNNY   55  49  80 SE9G18    30.13F
$$





USA.gov is the U.S. government's official web portal to all federal, state and local government web resources and services.